Helicity
21 37 24 27 32 31 25 29 35 35 32 31 42 54 60 44 23 12 6 14 26 34 58 43 54 -9 9 60 74 53 53 57 52 51 45 45 56 64 67 60 48 50 74
48 30 11 14 21 23 29 34 35 33 30 32 38 62 58 50 35 30 12 21 24 30 50 25 54 86 73 60 47 40 41 43 35 47 51 34 49 66 65 57 46 62 62
39 24 4 13 17 23 28 34 34 28 21 15 22 52 63 63 43 32 31 27 27 30 19 20 15 33 41 32 27 34 34 36 35 51 49 38 47 57 59 53 44 39 42
35 16 8 24 53 44 36 30 27 20 16 14 47 63 56 30 11 29 31 31 37 36 36 33 33 38 34 36 33 34 46 51 53 50 38 54 47 56 46 50 39 29 31
31 20 43 50 58 38 34 28 20 18 13 15 70 52 20 16 21 31 34 42 46 42 42 48 50 49 50 47 44 43 47 50 51 31 59 60 53 66 47 34 25 43 25
35 51 92 64 52 38 34 28 23 20 20 43 67 29 17 11 21 22 36 43 33 32 35 40 42 46 48 44 35 37 50 52 32 41 39 43 31 49 34 27 15 21 24
62 49 58 44 58 51 36 30 26 22 19 24 24 -2 -1 5 -6 -13 36 41 22 20 19 20 25 32 27 23 22 20 19 23 13 27 25 31 31 27 18 21 16 4 -2
44 36 61 45 75 62 44 35 29 23 14 9 -6 -27 -25 -18 -24 -10 36 18 8 10 7 13 22 20 12 16 14 14 15 13 12 22 29 28 45 23 13 15 10 7 1
49 46 43 42 58 61 45 40 34 29 23 6 -7 -24 -24 -15 14 29 23 7 -1 -2 12 17 20 15 21 35 49 56 46 33 13 41 34 33 57 35 37 39 55 46 15
77 67 50 48 36 36 39 44 42 41 35 28 13 10 8 7 16 34 20 20 15 19 25 33 41 59 69 66 67 60 35 4 36 33 39 59 41 40 53 63 64 66 66
65 69 58 49 38 35 40 53 50 47 49 50 48 48 19 0 12 18 59 35 33 39 50 56 70 70 51 63 59 47 8 40 38 44 50 71 55 67 81 99 110 108 101
48 51 53 45 40 42 50 53 41 53 43 41 48 50 35 27 32 47 54 52 50 57 81 81 69 43 36 47 42 21 43 41 48 58 76 85 80 93 121 153 129 112 115
50 53 40 57 49 41 48 50 57 57 55 57 57 61 67 60 57 52 57 51 53 55 64 69 43 65 60 51 44 46 45 42 50 56 96 115 117 116 166 149 131 115 155
56 44 44 50 49 36 47 48 54 63 62 65 67 74 85 92 85 76 79 97 90 84 79 53 57 53 53 49 49 48 45 48 57 68 93 118 140 172 153 145 114 125 142
96 51 38 38 44 47 40 50 61 55 73 69 81 92 98 106 119 124 114 107 107 83 73 64 66 66 68 59 49 48 50 55 62 69 84 147 162 154 148 135 125 148 136
96 70 56 51 47 53 56 63 68 72 80 85 95 107 114 135 146 131 127 134 115 90 75 73 80 69 61 53 47 51 56 57 55 72 83 104 147 148 140 137 133 138 133
104 92 76 59 53 55 65 76 89 106 110 102 107 126 124 128 143 148 146 135 114 90 70 66 64 54 48 46 44 45 45 50 60 73 88 100 100 138 150 144 139 137 131
104 94 75 70 47 50 72 101 119 142 141 121 124 133 133 133 139 155 147 123 101 79 76 70 53 46 46 43 37 38 39 48 69 94 111 119 126 114 103 130 133 124 114
119 116 95 73 42 47 69 102 138 160 188 188 175 157 146 156 158 179 147 112 92 86 82 61 56 52 50 42 32 34 42 53 78 92 116 120 118 106 103 95 96 81 95
135 129 111 88 71 90 108 109 172 221 257 246 234 205 197 194 187 209 139 110 105 89 74 59 55 50 43 34 27 33 55 67 83 91 106 104 104 85 97 91 82 79 52
190 168 127 103 102 131 163 224 255 306 326 318 289 265 234 240 227 193 148 119 114 92 80 63 48 44 37 32 18 41 57 75 79 90 83 76 118 92 77 82 84 80 80
238 192 169 122 117 138 203 169 233 366 413 353 343 352 297 247 232 145 142 131 109 93 81 69 46 25 29 34 26 27 60 66 103 58 108 101 86 108 111 109 105 103 98
223 215 190 157 132 152 153 235 361 446 489 457 373 415 353 290 203 153 147 133 114 91 77 62 51 37 29 33 40 29 18 65 92 63 85 97 100 112 105 94 80 71 70
168 190 181 182 145 170 205 217 283 391 415 402 377 380 393 289 178 179 154 131 116 94 75 61 52 48 23 35 18 46 56 72 67 65 65 20 92 75 81 78 69 62 63
155 158 162 172 162 167 149 166 251 308 368 383 385 431 392 258 184 173 148 131 119 99 82 64 51 51 49 41 45 47 51 53 57 79 69 69 78 70 58 52 34 20 24
170 172 167 162 148 129 135 157 227 359 376 400 434 398 335 227 188 165 151 137 120 101 82 69 64 60 58 60 59 60 64 71 73 78 74 76 77 56 70 56 38 32 42
Wind_Speed
15 19 22 21 23 25 25 26 27 28 28 27 25 22 22 24 26 28 29 31 32 30 30 32 32 25 22 22 22 23 26 30 33 37 41 43 40 39 36 34 33 33 32
17 20 21 19 21 23 25 26 27 28 29 27 25 23 23 25 26 27 30 31 30 28 27 28 30 30 26 26 27 27 28 32 34 37 40 38 37 38 37 35 32 34 34
17 18 19 17 19 20 21 24 26 28 30 28 27 26 25 26 28 27 29 29 30 29 28 29 28 29 29 29 30 31 32 35 36 37 41 38 37 38 39 39 30 29 30
14 14 15 15 16 18 20 22 24 27 28 28 27 27 27 28 24 25 27 29 30 30 28 27 29 31 31 31 32 33 34 36 36 38 38 40 39 38 42 42 39 29 26
14 14 12 13 13 15 18 20 23 25 25 26 26 28 26 26 25 25 27 28 30 29 29 29 29 31 32 33 34 34 34 35 36 37 40 40 43 41 44 43 40 39 26
10 11 12 12 11 13 16 19 22 24 24 22 24 25 25 24 24 24 24 27 28 28 29 30 31 32 33 34 35 37 37 37 38 40 40 40 41 44 44 43 42 39 36
5 6 9 10 9 11 13 17 20 21 22 22 21 22 26 26 27 24 22 24 27 28 29 31 33 33 34 34 35 36 36 37 40 39 41 41 41 44 45 44 42 40 39
4 5 7 8 9 10 12 15 17 19 19 19 20 22 26 29 34 21 21 24 26 28 30 32 34 35 35 35 36 37 38 39 38 41 44 44 45 47 45 46 45 44 42
3 3 4 4 5 7 10 12 15 17 18 17 18 21 25 28 31 22 22 24 26 29 31 33 35 36 37 39 39 40 41 41 42 44 46 44 48 49 51 49 49 50 50
7 5 4 5 5 6 7 10 13 16 17 17 17 20 23 26 27 24 23 25 28 30 32 35 38 37 37 40 41 41 41 40 43 42 41 44 48 48 48 48 49 51 53
15 8 8 9 11 9 9 8 12 14 15 17 17 20 22 24 24 24 26 27 29 32 34 35 37 37 36 38 41 42 43 44 44 44 43 49 48 46 45 46 47 48 51
17 15 11 13 13 13 15 12 11 12 13 15 17 18 22 23 24 25 26 28 30 31 33 35 36 37 37 39 41 42 45 45 44 45 45 50 48 45 44 44 48 50 50
23 19 18 17 19 18 16 15 16 13 12 14 17 20 22 23 22 24 26 27 29 31 34 35 35 38 40 43 45 45 45 45 44 44 47 50 48 45 42 45 49 50 47
27 21 19 18 19 19 22 19 19 16 12 12 12 16 19 21 23 26 27 30 30 32 34 35 37 40 42 45 47 47 46 46 45 44 44 48 43 42 43 45 48 48 48
36 27 22 20 19 19 19 19 19 17 15 13 12 13 19 21 22 25 28 30 31 33 35 37 40 43 44 46 48 49 49 46 44 40 38 43 41 42 43 45 49 48 50
42 36 30 24 24 22 19 18 17 16 16 15 13 11 15 21 22 24 26 28 32 35 36 39 42 44 45 47 51 50 49 44 40 38 36 37 39 41 43 46 49 52 54
50 45 39 35 29 28 28 26 22 19 17 16 14 10 15 20 19 20 23 28 31 34 37 40 42 45 48 49 51 50 47 42 38 36 34 35 35 40 44 48 52 55 57
59 51 42 37 34 31 29 27 25 21 18 15 14 14 16 17 16 18 24 29 30 33 37 41 45 47 51 52 53 49 46 40 35 35 34 35 37 40 43 50 55 58 61
63 61 52 44 40 35 32 27 23 22 18 18 20 19 16 15 15 19 24 27 28 32 36 40 45 48 52 55 55 51 48 40 32 33 34 36 41 46 51 52 58 60 66
63 61 63 54 44 36 30 25 23 23 22 18 22 22 16 16 15 17 22 26 27 31 36 40 44 47 51 57 56 53 45 38 33 33 36 39 45 46 52 57 62 66 70
60 57 58 56 44 35 29 26 25 25 23 21 20 18 15 14 14 16 21 23 26 31 36 40 43 49 53 58 55 52 45 40 38 35 37 45 43 51 54 61 66 71 73
64 55 52 51 46 38 33 29 26 25 25 20 17 18 15 13 13 18 19 21 25 30 36 41 46 49 52 57 57 54 57 45 41 37 49 41 52 50 63 66 72 73 75
63 57 51 50 44 38 33 27 23 22 20 21 16 18 18 16 12 16 17 19 24 29 36 41 46 51 55 54 55 56 59 57 63 43 44 54 50 63 67 71 71 72 76
62 57 50 44 40 33 29 29 29 29 26 21 17 16 14 15 14 14 15 19 24 29 35 40 45 49 53 58 54 54 52 54 62 66 51 57 60 67 73 71 72 78 73
63 56 49 42 37 33 29 28 28 27 23 16 15 14 13 14 14 13 14 18 24 30 35 40 45 50 53 56 58 58 57 56 55 63 77 68 74 74 74 68 81 73 77
62 54 46 40 38 34 29 27 26 26 24 19 16 13 13 14 12 12 14 19 25 30 36 41 45 50 54 56 57 57 59 61 64 67 76 81 84 80 75 80 71 76 78
Wind_Direction
38 82 89 74 68 64 53 44 39 33 28 27 27 34 31 23 14 7 354 336 328 331 337 352 347 10 9 18 13 2 352 340 334 330 329 328 330 333 338 339 340 345 342
81 88 94 78 68 63 57 47 36 30 28 30 34 40 33 16 8 359 349 342 339 338 337 345 351 0 10 6 2 356 351 340 335 332 330 336 339 336 339 342 342 340 341
86 87 92 78 73 55 46 43 37 30 27 38 47 47 31 8 345 355 350 352 347 340 334 333 345 349 351 351 347 345 343 338 337 335 330 335 337 338 336 336 346 343 340
84 76 82 80 67 53 41 35 31 29 30 36 48 44 24 6 19 16 9 4 357 353 352 343 339 342 341 342 342 341 338 336 339 338 338 336 337 338 332 332 337 343 343
87 76 57 79 58 41 35 30 28 29 27 28 51 35 37 28 34 26 11 4 357 357 357 357 353 350 348 345 342 344 346 345 343 343 338 339 334 339 331 331 336 337 340
92 68 65 84 52 38 31 29 28 28 31 36 35 35 29 23 26 22 21 15 6 6 3 0 354 353 350 350 348 340 343 343 343 340 341 342 340 337 336 335 333 334 335
62 34 72 85 65 45 34 31 29 29 31 32 31 29 359 353 344 353 21 22 13 6 0 355 352 353 358 357 353 352 351 348 342 343 341 341 340 339 336 335 335 333 332
65 53 51 78 77 55 50 41 27 24 26 19 17 11 1 350 327 16 36 18 8 1 355 347 346 350 354 359 357 355 350 347 345 340 336 336 335 332 335 332 331 329 329
356 27 14 27 61 44 35 39 32 26 23 15 5 355 348 349 347 35 24 12 357 345 338 342 346 351 354 354 355 349 346 345 339 335 334 336 332 331 330 332 333 330 325
306 322 331 316 325 356 15 21 28 30 22 10 353 346 346 348 352 1 3 351 341 339 343 345 347 358 2 358 354 350 347 346 340 342 344 341 337 337 337 336 335 330 327
290 294 292 294 295 308 328 356 8 11 13 8 359 345 343 339 346 351 342 341 339 338 343 351 358 2 3 0 355 349 343 339 337 336 339 335 337 340 342 341 338 338 337
285 281 284 282 287 293 303 317 333 351 2 356 354 352 338 335 338 343 345 342 339 342 350 354 359 2 0 358 354 347 339 339 338 335 337 333 336 341 342 341 337 334 334
286 283 277 277 279 282 292 299 309 327 345 347 340 335 334 332 338 340 344 345 344 343 344 351 358 355 355 347 341 342 341 340 340 339 336 334 337 341 345 345 339 336 337
283 282 278 273 273 274 283 287 296 305 320 337 345 336 333 332 331 333 335 336 339 340 346 349 351 350 351 341 335 338 341 340 339 340 343 339 345 346 345 345 343 340 337
279 279 275 271 269 269 272 283 290 294 299 313 327 328 322 325 331 332 333 335 336 339 341 345 344 344 345 339 335 335 337 340 341 345 349 348 350 349 348 345 342 341 338
277 278 276 270 268 269 268 274 280 286 293 301 309 318 319 321 327 333 335 335 334 333 337 340 340 342 343 340 333 334 336 340 344 347 349 351 350 350 348 345 341 337 333
275 277 277 275 271 269 272 272 274 276 282 291 297 305 312 317 325 332 334 334 333 334 336 338 340 341 340 340 334 333 337 341 345 348 350 349 351 349 345 342 339 335 332
271 274 277 279 276 271 269 267 267 267 271 278 285 295 301 312 322 330 331 332 334 335 336 338 339 341 339 338 333 334 337 341 345 347 350 350 348 343 339 335 333 331 329
269 269 271 277 280 275 270 264 256 261 262 271 282 288 293 301 312 323 328 333 335 336 338 341 343 343 339 334 332 335 336 340 343 344 346 345 341 335 330 330 328 327 325
266 268 268 273 277 277 272 260 253 259 269 269 276 279 282 290 304 319 326 332 336 337 341 344 344 348 342 333 332 334 342 347 345 342 341 339 336 334 331 327 325 323 323
265 266 267 268 271 270 262 250 245 253 262 271 274 269 274 284 300 313 321 330 335 338 341 344 345 342 341 340 336 337 340 345 339 338 339 335 333 329 329 327 325 323 322
264 262 262 265 265 264 262 254 254 260 267 268 273 271 273 274 297 307 319 327 335 340 341 342 342 340 341 341 337 336 330 337 344 338 333 339 330 331 326 326 324 324 323
262 260 258 260 260 258 256 252 256 263 265 267 264 270 275 281 292 310 319 327 335 340 339 340 343 341 338 341 343 337 329 328 329 335 333 330 330 327 326 325 325 325 324
259 258 255 253 252 246 237 245 242 248 243 249 247 263 270 275 294 312 321 329 335 340 340 342 345 343 340 337 339 340 338 334 328 325 330 327 325 325 324 324 324 324 323
255 254 250 245 243 239 233 240 240 247 252 237 244 243 265 273 293 310 322 332 337 339 341 340 341 341 341 338 337 336 335 333 331 326 321 324 322 323 323 324 321 322 321
253 248 243 235 237 233 232 232 230 230 233 221 223 227 250 271 293 306 321 331 337 339 338 339 340 340 339 338 337 336 334 332 329 326 322 322 321 323 323 321 323 322 322